User: anonymous   Login
Location: Turtle Rock Observatory
(36.6913°N, 81.9708°W)
Time: 21:35:36
(UTC-05:00)
Language:

Cosmos 1125 Rocket - Orbit

View from above orbital plane
View from above orbital plane
View from above satellite
View from above satellite

Ground track
Ground track

The orbit data is extracted from the following two-line orbital elements,

1 11511U 79078B   17053.48520431  .00000046  00000-0  24523-4 0  9993
2 11511  74.0377 166.1211 0014535  76.9536 283.3239 14.36753337962145
Epoch (UTC): 22 February 2017 11:38:41
Eccentricity: 0.0014535
inclination: 74.0377°
perigee height: 759 km
apogee height: 779 km
right ascension of ascending node: 166.1211°
argument of perigee: 76.9536°
revolutions per day: 14.36753337
mean anomaly at epoch: 283.3239°
orbit number at epoch: 96214

The dashed part of the orbit path shows where the satellite is in the earth's shadow,  

DLR